Regional Weather Roundup
Issued by NWS

Home | Current Version | Previous Version | Text Only | Print | Product List | Glossary Off
Versions: 1 2 3 4 5 6 7 8 9 10 11 12 13 14 15 16 17 18 19 20 21 22 23 24 25 26 27 28 29 30 31 32 33 34 35 36 37 38 39 40 41 42 43 44 45 46 47 48 49 50

000
ASUS45 KTFX 211810
RWRMT
MONTANA REGIONAL WEATHER ROUNDUP
NATIONAL WEATHER SERVICE GREAT FALLS MT
1100 AM MST SUN JAN 21 2018

NOTE: "FAIR" INDICATES FEW OR NO CLOUDS BELOW 12000 FEET WITH NO
SIGNIFICANT WEATHER AND/OR OBSTRUCTIONS TO VISIBILITY.

MTZ001>007-043-211900-
WEST OF THE DIVIDE

CITY           SKY/WX    TMP DP  RH WIND       PRES   REMARKS
KALISPELL      CLOUDY    30  27  88 CALM      30.12S
MISSOULA       CLOUDY    31  23  72 SE10      30.16S WCI  22
BUTTE          FAIR       6   2  83 SE3       30.11R
MULLAN PASS    CLOUDY    24  20  84 VRB6      30.00S WCI  17
ANACONDA         N/A     21  12  68 SE10      30.11S WCI  10
DEER LODGE       N/A     18  10  73 CALM      30.15S
EUREKA           N/A     36  23  60 MISG      30.09S
HAMILTON         N/A     30  18  59 S13         N/A  WCI  20
RONAN            N/A     32  25  74 S3        30.14S
$$

MTZ008-052>055-211900-
SOUTHWEST MONTANA

CITY           SKY/WX    TMP DP  RH WIND       PRES   REMARKS
BOZEMAN        FAIR      16  11  80 CALM      30.14R
DILLON         FAIR      19  11  70 SW9       30.12R WCI   8
ENNIS          SUNNY     23  14  68 S10       30.15S WCI  12
W YELLOWSTONE  PTSUNNY    0  -4  85 E3        30.10R
THREE FORKS      N/A     25  19  77 CALM      30.11R
$$

MTZ009-010-012-014-046-048-049-054-211900-
EAST SLOPES AND CENTRAL MONTANA

CITY           SKY/WX    TMP DP  RH WIND       PRES   REMARKS
CUT BANK       FAIR      35  18  49 W22       29.93F WCI  23
GREAT FALLS    FAIR      34  17  50 SW14      30.01F WCI  25
MALMSTROM AFB  FAIR      34  19  56 SW18G24   30.02F WCI  23
HELENA         FAIR      20  14  77 CALM      30.11S
AUGUSTA        FAIR      30  17  56 W22       29.98S WCI  17
BOWMANS CRNR   FAIR      29  17  62 S22       29.97F WCI  15
CHOTEAU          N/A     34  18  51 SW10      29.98S WCI  26
CONRAD           N/A     20  13  74 SW6       29.98  WCI  12
FAIRFIELD      FAIR      32  17  52 S17       29.98S WCI  21
POWER          FAIR      28  18  66 SW14      29.99S WCI  17
RAYNESFORD     FAIR      33  13  44 SW12      30.02S WCI  24
ULM            FAIR      35  15  43 SW9       30.03S WCI  28
WHITE SULPHUR    N/A     23  14  68 S17       30.05R WCI   9
$$

MTZ011-013-016-021-045-047-050-051-211900-
NORTH CENTRAL MONTANA

CITY           SKY/WX    TMP DP  RH WIND       PRES   REMARKS
HAVRE          FAIR      23  17  78 SW15      30.01F WCI  10
LEWISTOWN      FAIR      26  16  65 CALM      30.01S
N BAR RANCH    FAIR      30  12  47 CALM      30.01F
CHINOOK          N/A     25  18  74 CALM      30.01F
DENTON         FAIR      26  19  73 MISG      29.98S
GEYSER         FAIR      32  17  53 W15G22    29.99S WCI  21
GRASS RANGE    FAIR      33  16  50 W7        29.98F WCI  27
STANFORD       FAIR      31  18  58 S5        29.99S
WINIFRED       FAIR      33  19  56 SW10      30.00S WCI  24
$$

MTZ017>020-022>027-061-062-211900-
NORTHEAST MONTANA

CITY           SKY/WX    TMP DP  RH WIND       PRES   REMARKS
GLASGOW        FAIR      20  17  88 W3        30.02F
GLENDIVE       FAIR      20  14  77 S8        30.05R WCI  10
JORDAN           N/A     24  17  74 W12       30.04S WCI  13
MALTA          SUNNY     10   7  85 W8        30.04S WCI  -1
SIDNEY         FAIR      23  18  81 SW13      30.03F WCI  11
WOLF POINT     FAIR      17  12  80 W6        30.04S WCI   9
PLENTYWOOD       N/A     21  19  93 CALM      29.98S
POPLAR           N/A     14  10  85 W6        30.03F WCI   5
$$

MTZ028>42-056>058-211900-
SOUTHCENTRAL AND SOUTHEAST MONTANA

CITY           SKY/WX    TMP DP  RH WIND       PRES   REMARKS
BAKER          FAIR      26  20  77 W13       30.04S WCI  15
BILLINGS       FAIR      28  18  66 SW14      30.07F WCI  17
LIVINGSTON     FAIR      25  17  72 SW22      30.07F WCI  10
MILES CITY     FAIR      19  15  84 S5        30.08S
BIG TIMBER     SUNNY     28  18  64 W29G36    30.06S WCI  13
FORSYTH          N/A     19  12  73 CALM      30.08F
HARLOWTON      FAIR      27  18  67 W24       30.03S WCI  12
LAUREL           N/A     27  18  69 SW7       30.09F WCI  19
$$

REGIONAL REPORTS...DAKOTAS

CITY           SKY/WX    TMP DP  RH WIND       PRES   REMARKS
WILLISTON      FAIR      20  16  84 S7        30.02F WCI  11
MINOT          FAIR      26  18  71 S5        30.02F
DICKINSON      FAIR      30  19  63 W9        30.00F WCI  22
BEACH          FAIR      27  19  74 SW12      30.06R WCI  16
CROSBY         FAIR      19  18  93 SW14      30.00F WCI   6
TIOGA          FLURRIES  14  14 100 CALM      30.01S
BISMARCK       FAIR      23  19  85 W3        30.07F
GRAND FORKS    CLOUDY    25  22  88 N6        30.10F WCI  18
FARGO          CLOUDY    22  21  96 N8        30.08S FOG     WCI  12
BUFFALO SD       N/A     30  20  66 W8        29.95S WCI  22
RAPID CITY     CLOUDY    33  24  69 N12       30.01S WCI  24
$$

REGIONAL REPORTS...WYOMING/IDAHO/WASHINGTON

CITY           SKY/WX    TMP DP  RH WIND       PRES   REMARKS
GILLETTE       FAIR      28  21  75 NW10      30.03R WCI  19
SHERIDAN       FAIR      30  19  63 NW9       30.07S WCI  22
BUFFALO WY     FAIR      30  16  56 N18       30.03S WCI  18
CODY           FAIR      32  13  45 W6        30.06S WCI  26
YELLOWSTONE LA   N/A     -7 -10  87 CALM      30.08R
IDAHO FALLS    FAIR      24  21  88 SW8       30.19R WCI  15
SALMON         CLOUDY    29  21  72 S5        30.23S
BOISE          FAIR      36  27  69 SE8       30.25R WCI  30
SPOKANE        PTSUNNY   36  30  79 SE13      30.04F WCI  27
$$

REGIONAL REPORTS...ALBERTA

CITY           SKY/WX    TMP DP  RH WIND       PRES   REMARKS
CALGARY        PTSUNNY   32  16  51 SW7       29.77F WCI  26
CARDSTON         N/A     37  16  41 SW9         N/A  WCI  31
EDMONTON       CLOUDY    21  19  93 E9        29.82F WCI  11
FORT MCMURRAY  CLOUDY     3   0  85 NE2       30.05R
HIGH LEVEL     FLURRIES  10   7  85 SE6       29.94F WCI   1
LETHBRIDGE     MOSUNNY   37  21  52 SW16G23   29.90S WCI  28
LLOYDMINSTER   FOG       21  21 100 E5        29.91R VSB 1/2
MEDICINE HAT   MOSUNNY   32  21  64 S15       29.93F WCI  22
MILK RIVER       N/A     36  19  51 W15         N/A  WCI  26
ONEFOUR          N/A     16  12  86 E9          N/A  WCI   4
PEACE RIVER    CLOUDY    18  14  86 NE16      29.74F WCI   3
PINCHER CREEK  SUNNY     34  21  60 W26G32    29.90S WCI  21
WATERTON GATE    N/A     34  18  51 W21G31      N/A  WCI  22
$$

REGIONAL REPORTS...SASKATCHEWAN

CITY           SKY/WX    TMP DP  RH WIND       PRES   REMARKS
CORONACH         N/A     25  19  80 W7          N/A  WCI  17
CYPRESS HILLS    N/A     30  10  43 SW7         N/A  WCI  23
ESTEVAN        MOSUNNY   19  18  93 S6        29.98F WCI  11
MOOSE JAW        N/A     30  21  69 W14         N/A  WCI  20
PRINCE ALBERT  CLOUDY    16  14  93 E3        30.00R
REGINA         MOSUNNY   16  14  93 SE7       29.95S WCI   6
ROCKGLEN         N/A     21  16  79 W13         N/A  WCI   9
SASKATOON      FOG       18  16  93 SW3       29.97F VSB 1/8
SWIFT CURRENT  SUNNY     30  19  64 W17       29.91S WCI  18
VAL MARIE        N/A     18  14  86 E2          N/A
$$



USA.gov is the U.S. government's official web portal to all federal, state and local government web resources and services.